To NAV CANADA Home Page Login to a new session Search on AWWS site Feedback and Comments Disclaimer Vers la page française équivalente Tips FAQ What's new on the site To the Forecasts and Observations / NOTAM section To "File a Flight Plan" website Publications and other links Update of the User's profile FIC Telephone Numbers My Weather Data Folder Route Weather Data Regional Weather Data Local Weather Data To the Forecasts and Observations / NOTAM section
Request Generated 06/26/2017 at 03:37:29 UTC . Weather information available at that time is displayed.

METAR/TAF

HOPE/BC    (show WxCam)

METAR CYHE 260300Z AUTO 00000KT 9SM CLR 25/17 A2980 RMK SLP091
DENSITY ALT 1400FT=
METAR CYHE 260200Z AUTO 24007KT 170V260 9SM CLR 29/15 A2980 RMK
SLP091 DENSITY ALT 1900FT=
METAR CYHE 260100Z AUTO 22006KT 190V260 9SM CLR 28/15 A2980 RMK
SLP091 DENSITY ALT 1800FT=

CYHE - No TAF is issued for this station

Your time UTC time
Weather data provided by Environment Canada and NAV CANADA